Погода в Клинцах

Россия / Калужская область     53°48′11″N   35°13′50″E
темп.,
°C
ветер,
м/с
пор.,
м/с
влажн.,
%
обл.,
%
осадки,
мм/ч
давл.,
гПа
погр.,
м
1 июля, пт
пт100:00+14с23785 0.0 101853
03:00+12с23780 0.0 101957
06:00+14ссз25770 0.0 1018140
09:00+21ссз485426 0.0 1017652
12:00+23ссв575519 0.1 10181564
15:00+24ссв69435 0.4 10181961
18:00+21св48450 0.0 10191597
21:00+13в22710 0.0 102125
2 июля, сб
сб200:00+10всв22760 0.0 102313
03:00+9ссв11800 0.0 102410
06:00+10с24745 0.0 1025117
09:00+17ссв354938 0.0 1024603
12:00+21ссв34385 0.0 10241340
15:00+23с34350 0.0 10221516
18:00+22с244512 0.0 10211134
21:00+16зсз22720 0.0 102115
3 июля, вс
вс300:00+13сз22771 0.0 102112
03:00+12зсз25865 0.0 102073
06:00+15сз298685 0.0 1020237
09:00+21сз3764100 0.0 1019492
12:00+26ссз4644100 0.0 10181153
15:00+28ссз464096 0.0 10171811
18:00+27с255192 0.0 1017839
21:00+21сз2579100 0.0 101784
4 июля, пн
пн400:00+18сз23915 0.0 101763
03:00+16ссз119624 0.3 101816
06:00+18ссз13895 0.0 101873
09:00+24ссв12625 0.0 1018510
12:00+28ссв23465 0.0 10171647
15:00+29ссв324115 0.0 10171959
18:00+27юв2355100 0.1 1016588
21:00+19ссз1193100 2.2 101816
5 июля, вт
вт500:00+19юв249599 3.4 101772
03:00+17ююз129792 3.4 101821
06:00+18ююз139739 2.9 101898
09:00+22ю227897 3.3 1018378
12:00+27юз235411 2.1 10171239
15:00+30юз233870 2.1 10162652
18:00+22с227484 0.3 101636
21:00+20всв118376 0.6 101615